AWC1886 MMSM-CYYR

Flight info

Callsign AWC1886
Flight time N/A
Altitude 37000
Route IKLAN1Q IKLAN UT140 TAM J177 PSX J29 ELD Q32 BAKRE Q29 JHW Q84 AUDIL J59 SYR Q844 IKLAX DCT KEMVI Q852 TAMKO Q941 AGLUK Q921 IMORI Q910 TABRU
Aircraft A320/M-SDFGHIJ1RWXYZ/LB1

Departure

Time 2026-04-25 09:34
Airport Felipe Ángeles International Airport (MMSM)

Arrival

Time N/A
Airport Goose Bay Airport (CYYR)
Time Latitude Longitude Altitude Speed Heading
2026-04-25 09:02 19.75071 -99.01405 7378 ft 0 kts 140°
2026-04-25 09:24 19.75081 -99.01415 7377 ft 4 kts 140°
2026-04-25 09:24 19.75102 -99.01434 7377 ft 4 kts 140°
2026-04-25 09:25 19.75119 -99.01449 7377 ft 4 kts 154°
2026-04-25 09:25 19.75142 -99.01452 7377 ft 4 kts 215°
2026-04-25 09:25 19.75160 -99.01433 7377 ft 4 kts 229°
2026-04-25 09:25 19.75175 -99.01413 7378 ft 1 kts 229°
2026-04-25 09:26 19.75176 -99.01413 7378 ft 1 kts 229°
2026-04-25 09:27 19.75173 -99.01417 7378 ft 3 kts 229°
2026-04-25 09:28 19.75134 -99.01464 7377 ft 12 kts 229°
2026-04-25 09:28 19.75076 -99.01535 7377 ft 13 kts 229°
2026-04-25 09:28 19.75015 -99.01610 7377 ft 14 kts 229°
2026-04-25 09:28 19.74946 -99.01694 7377 ft 17 kts 229°
2026-04-25 09:29 19.74858 -99.01801 7377 ft 22 kts 229°
2026-04-25 09:29 19.74749 -99.01933 7377 ft 25 kts 229°
2026-04-25 09:29 19.74633 -99.02074 7377 ft 26 kts 229°
2026-04-25 09:29 19.74515 -99.02218 7377 ft 26 kts 229°
2026-04-25 09:30 19.74398 -99.02363 7377 ft 26 kts 229°
2026-04-25 09:30 19.74280 -99.02507 7377 ft 26 kts 229°
2026-04-25 09:30 19.74162 -99.02650 7377 ft 26 kts 229°
2026-04-25 09:30 19.74044 -99.02795 7377 ft 26 kts 229°
2026-04-25 09:31 19.73925 -99.02939 7377 ft 26 kts 229°
2026-04-25 09:31 19.73807 -99.03087 7376 ft 26 kts 230°
2026-04-25 09:31 19.73686 -99.03232 7376 ft 26 kts 229°
2026-04-25 09:31 19.73567 -99.03378 7377 ft 26 kts 229°
2026-04-25 09:32 19.73448 -99.03523 7377 ft 26 kts 229°
2026-04-25 09:32 19.73332 -99.03664 7377 ft 22 kts 229°
2026-04-25 09:32 19.73252 -99.03790 7377 ft 20 kts 268°
2026-04-25 09:32 19.73331 -99.03879 7377 ft 16 kts 321°
2026-04-25 09:33 19.73422 -99.03940 7376 ft 15 kts
2026-04-25 09:33 19.73499 -99.03858 7376 ft 18 kts 50°
2026-04-25 09:33 19.73669 -99.03647 7376 ft 70 kts 49°
2026-04-25 09:33 19.74127 -99.03088 7379 ft 129 kts 49°
2026-04-25 09:34 19.74826 -99.02236 7376 ft 176 kts 49°
2026-04-25 09:34 19.75703 -99.01168 7622 ft 202 kts 49°
2026-04-25 09:34 19.76655 -99.00015 8246 ft 219 kts 49°
2026-04-25 09:34 19.77703 -98.98748 8771 ft 232 kts 48°
2026-04-25 09:35 19.78766 -98.97456 9289 ft 236 kts 48°
2026-04-25 09:35 19.79851 -98.96126 9718 ft 244 kts 46°
2026-04-25 09:35 19.81290 -98.95093 9864 ft 262 kts 13°
2026-04-25 09:35 19.83113 -98.95147 10167 ft 270 kts 339°
2026-04-25 09:36 19.84767 -98.96103 10679 ft 273 kts 321°
2026-04-25 09:36 19.86261 -98.97366 11269 ft 275 kts 321°
2026-04-25 09:36 19.87769 -98.98635 11869 ft 277 kts 321°
2026-04-25 09:36 19.89287 -98.99911 12462 ft 279 kts 322°
2026-04-25 09:37 19.90818 -99.01199 13056 ft 282 kts 322°
2026-04-25 09:37 19.92383 -99.02461 13631 ft 284 kts 330°
2026-04-25 09:37 19.94259 -99.03183 13930 ft 297 kts 348°
2026-04-25 09:37 19.96341 -99.03605 14167 ft 310 kts 350°
2026-04-25 09:38 19.98499 -99.03991 14489 ft 319 kts 350°
2026-04-25 09:38 20.00723 -99.04375 14812 ft 328 kts 350°
2026-04-25 09:38 20.03003 -99.04773 15137 ft 336 kts 350°
2026-04-25 09:38 20.05340 -99.05186 15468 ft 344 kts 350°
2026-04-25 09:39 20.07755 -99.05352 15799 ft 353 kts
2026-04-25 09:39 20.10206 -99.04932 16121 ft 362 kts 14°
2026-04-25 09:39 20.12649 -99.04174 16423 ft 370 kts 15°
2026-04-25 09:40 20.17641 -99.02610 17349 ft 377 kts 15°
2026-04-25 09:40 20.20168 -99.01820 17842 ft 380 kts 15°
2026-04-25 09:40 20.22713 -99.01024 18306 ft 383 kts 15°
2026-04-25 09:40 20.25276 -99.00223 18730 ft 385 kts 14°
2026-04-25 09:41 20.27854 -98.99419 19176 ft 387 kts 14°
2026-04-25 09:41 20.30443 -98.98611 19628 ft 389 kts 14°
2026-04-25 09:41 20.32980 -98.97571 20080 ft 394 kts 25°
2026-04-25 09:41 20.35318 -98.96023 20536 ft 399 kts 35°
2026-04-25 09:42 20.37491 -98.94156 20973 ft 402 kts 37°
2026-04-25 09:42 20.39666 -98.92274 21437 ft 404 kts 36°
2026-04-25 09:42 20.41861 -98.90379 21887 ft 407 kts 36°
2026-04-25 09:42 20.44143 -98.88672 22313 ft 406 kts 27°
2026-04-25 09:43 20.46652 -98.87280 22748 ft 407 kts 24°
2026-04-25 09:43 20.49186 -98.85904 23177 ft 410 kts 24°
2026-04-25 09:43 20.51731 -98.84514 23603 ft 411 kts 24°
2026-04-25 09:43 20.54282 -98.83116 23935 ft 414 kts 24°
2026-04-25 09:44 20.56857 -98.81704 24262 ft 417 kts 24°
2026-04-25 09:44 20.59444 -98.80286 24578 ft 420 kts 24°
2026-04-25 09:44 20.62053 -98.78857 24907 ft 422 kts 24°
2026-04-25 09:44 20.64680 -98.77422 25224 ft 425 kts 23°
2026-04-25 09:45 20.67310 -98.75982 25539 ft 427 kts 23°
2026-04-25 09:45 20.69968 -98.74527 25858 ft 430 kts 23°
2026-04-25 09:45 20.72631 -98.73066 26148 ft 432 kts 23°
2026-04-25 09:45 20.75320 -98.71591 26449 ft 435 kts 23°
2026-04-25 09:46 20.78016 -98.70113 26761 ft 437 kts 23°
2026-04-25 09:46 20.80728 -98.68624 27055 ft 440 kts 23°
2026-04-25 09:46 20.83452 -98.67127 27373 ft 442 kts 23°
2026-04-25 09:46 20.86191 -98.65623 27671 ft 444 kts 23°
2026-04-25 09:47 20.88944 -98.64109 27970 ft 446 kts 23°
2026-04-25 09:47 20.91714 -98.62589 28246 ft 449 kts 23°
2026-04-25 09:47 20.94503 -98.61057 28531 ft 451 kts 22°
2026-04-25 09:47 20.97301 -98.59518 28756 ft 454 kts 22°
2026-04-25 09:48 21.00120 -98.57965 29019 ft 456 kts 22°
2026-04-25 09:48 21.02950 -98.56405 29338 ft 459 kts 22°
2026-04-25 09:48 21.05791 -98.54838 29638 ft 461 kts 22°
2026-04-25 09:48 21.08643 -98.53266 30018 ft 461 kts 22°
2026-04-25 09:49 21.11493 -98.51694 30372 ft 460 kts 22°
2026-04-25 09:49 21.14332 -98.50129 30743 ft 459 kts 22°
2026-04-25 09:49 21.17130 -98.48589 31117 ft 458 kts 22°
2026-04-25 09:49 21.19959 -98.47031 31505 ft 457 kts 22°
2026-04-25 09:50 21.22781 -98.45473 31906 ft 455 kts 22°
2026-04-25 09:50 21.25590 -98.43918 32301 ft 454 kts 22°
2026-04-25 09:50 21.28389 -98.42367 32692 ft 453 kts 22°
2026-04-25 09:50 21.31186 -98.40816 33093 ft 452 kts 22°
2026-04-25 09:51 21.33971 -98.39268 33490 ft 451 kts 23°
2026-04-25 09:51 21.35819 -98.38241 33750 ft 450 kts 22°
2026-04-25 09:51 21.38594 -98.36703 34075 ft 449 kts 22°
2026-04-25 09:51 21.41362 -98.35173 34377 ft 448 kts 22°
2026-04-25 09:52 21.44130 -98.33644 34658 ft 448 kts 22°
2026-04-25 09:52 21.46905 -98.32111 34762 ft 449 kts 22°
2026-04-25 09:52 21.52481 -98.29019 34785 ft 452 kts 22°
2026-04-25 09:53 21.58065 -98.25914 34785 ft 452 kts 22°
2026-04-25 09:53 21.63646 -98.22812 34783 ft 452 kts 22°
2026-04-25 09:54 21.69237 -98.19703 34779 ft 452 kts 22°
2026-04-25 09:54 21.74828 -98.16599 34785 ft 452 kts 22°
2026-04-25 09:55 21.80417 -98.13484 34789 ft 453 kts 22°
2026-04-25 09:55 21.86011 -98.10359 34786 ft 453 kts 22°
2026-04-25 09:56 21.91602 -98.07237 34786 ft 453 kts 22°
2026-04-25 09:56 21.97197 -98.04107 34789 ft 453 kts 22°
2026-04-25 09:57 22.02750 -98.01000 34789 ft 453 kts 22°
2026-04-25 09:57 22.08347 -97.97865 34790 ft 453 kts 22°
2026-04-25 09:58 22.13940 -97.94733 34789 ft 453 kts 22°
2026-04-25 09:58 22.19536 -97.91598 34790 ft 453 kts 22°
2026-04-25 09:59 22.25136 -97.88466 34788 ft 453 kts 22°
2026-04-25 09:59 22.30896 -97.85873 34790 ft 443 kts
2026-04-25 10:00 22.36899 -97.84490 34788 ft 441 kts
2026-04-25 10:00 22.42913 -97.83121 34784 ft 442 kts
2026-04-25 10:01 22.48925 -97.81746 34790 ft 442 kts
2026-04-25 10:01 22.54934 -97.80372 34793 ft 441 kts
2026-04-25 10:02 22.60942 -97.78989 34793 ft 441 kts
2026-04-25 10:02 22.66950 -97.77609 34796 ft 441 kts
2026-04-25 10:03 22.72961 -97.76228 34793 ft 441 kts
2026-04-25 10:03 22.78920 -97.74863 34798 ft 441 kts
2026-04-25 10:04 22.84916 -97.73483 34796 ft 440 kts
2026-04-25 10:04 22.90913 -97.72107 34797 ft 440 kts
2026-04-25 10:05 22.96903 -97.70732 34798 ft 440 kts
2026-04-25 10:05 23.02885 -97.69348 34804 ft 440 kts
2026-04-25 10:06 23.08865 -97.67962 34803 ft 439 kts
2026-04-25 10:06 23.14843 -97.66587 34802 ft 439 kts
2026-04-25 10:07 23.20817 -97.65215 34801 ft 439 kts
2026-04-25 10:07 23.26788 -97.63855 34796 ft 438 kts
2026-04-25 10:08 23.32717 -97.62512 34800 ft 438 kts
2026-04-25 10:08 23.38680 -97.61158 34802 ft 438 kts
2026-04-25 10:09 23.44645 -97.59798 34802 ft 438 kts
2026-04-25 10:09 23.50605 -97.58437 34800 ft 438 kts
2026-04-25 10:10 23.56559 -97.57073 34802 ft 438 kts
2026-04-25 10:10 23.62521 -97.55704 34800 ft 438 kts
2026-04-25 10:11 23.68481 -97.54344 34796 ft 438 kts
2026-04-25 10:11 23.74443 -97.52987 34797 ft 438 kts
2026-04-25 10:12 23.80403 -97.51620 34798 ft 438 kts
2026-04-25 10:13 23.89340 -97.49564 34794 ft 438 kts
2026-04-25 10:13 23.95263 -97.48208 34794 ft 438 kts
2026-04-25 10:14 24.01230 -97.46836 34792 ft 438 kts
2026-04-25 10:14 24.07192 -97.45469 34794 ft 438 kts
2026-04-25 10:15 24.13159 -97.44085 34791 ft 438 kts
2026-04-25 10:15 24.19124 -97.42699 34796 ft 438 kts
2026-04-25 10:16 24.25093 -97.41326 34794 ft 438 kts
2026-04-25 10:16 24.31062 -97.39954 34803 ft 438 kts
2026-04-25 10:17 24.37021 -97.38528 34799 ft 439 kts
2026-04-25 10:17 24.42977 -97.36971 34795 ft 440 kts
2026-04-25 10:18 24.48928 -97.35390 34797 ft 440 kts
2026-04-25 10:18 24.54875 -97.33850 34798 ft 439 kts
2026-04-25 10:19 24.60832 -97.32435 34799 ft 438 kts
2026-04-25 10:19 24.66791 -97.31066 34799 ft 438 kts
2026-04-25 10:20 24.72751 -97.29673 34801 ft 438 kts
2026-04-25 10:20 24.78703 -97.28265 34801 ft 437 kts
2026-04-25 10:21 24.84651 -97.26850 34804 ft 437 kts
2026-04-25 10:21 24.90599 -97.25435 34804 ft 437 kts
2026-04-25 10:22 24.96507 -97.24029 34800 ft 437 kts
2026-04-25 10:22 25.02444 -97.22617 34802 ft 437 kts
2026-04-25 10:23 25.08385 -97.21207 34804 ft 437 kts
2026-04-25 10:23 25.14324 -97.19795 34807 ft 436 kts
2026-04-25 10:24 25.20263 -97.18378 34804 ft 436 kts
2026-04-25 10:24 25.26195 -97.16956 34801 ft 436 kts
2026-04-25 10:25 25.32119 -97.15539 34807 ft 436 kts
2026-04-25 10:25 25.38052 -97.14123 34801 ft 436 kts
2026-04-25 10:26 25.43979 -97.12708 34802 ft 436 kts
2026-04-25 10:26 25.49902 -97.11294 34805 ft 436 kts
2026-04-25 10:27 25.55829 -97.09870 34802 ft 435 kts
2026-04-25 10:27 25.61757 -97.08525 34805 ft 434 kts
2026-04-25 10:28 25.67686 -97.07233 34804 ft 434 kts
2026-04-25 10:28 25.73574 -97.05937 34809 ft 434 kts
2026-04-25 10:29 25.79499 -97.04626 34808 ft 434 kts
2026-04-25 10:29 25.85420 -97.03297 34807 ft 434 kts
2026-04-25 10:30 25.91344 -97.01970 34808 ft 434 kts
2026-04-25 10:30 25.97264 -97.00650 34810 ft 434 kts
2026-04-25 10:31 26.03183 -96.99301 34812 ft 435 kts
2026-04-25 10:31 26.09093 -96.97848 34812 ft 435 kts
2026-04-25 10:32 26.14995 -96.96365 34813 ft 435 kts
2026-04-25 10:32 26.20900 -96.94895 34814 ft 435 kts
2026-04-25 10:33 26.26808 -96.93446 34816 ft 434 kts
2026-04-25 10:33 26.32704 -96.92004 34819 ft 434 kts
2026-04-25 10:34 26.38607 -96.90551 34821 ft 434 kts
2026-04-25 10:34 26.44504 -96.89096 34817 ft 434 kts
2026-04-25 10:35 26.50354 -96.87653 34819 ft 434 kts
2026-04-25 10:35 26.56243 -96.86197 34815 ft 434 kts
2026-04-25 10:36 26.62139 -96.84738 34821 ft 433 kts
2026-04-25 10:36 26.68024 -96.83279 34818 ft 433 kts
2026-04-25 10:37 26.73912 -96.81816 34819 ft 433 kts
2026-04-25 10:37 26.79791 -96.80351 34824 ft 433 kts
2026-04-25 10:38 26.85672 -96.78891 34823 ft 433 kts
2026-04-25 10:38 26.91548 -96.77437 34821 ft 432 kts
2026-04-25 10:39 26.97381 -96.75987 34815 ft 432 kts
2026-04-25 10:39 27.03251 -96.74515 34824 ft 432 kts
2026-04-25 10:40 27.09119 -96.73048 34818 ft 432 kts
2026-04-25 10:40 27.14984 -96.71586 34825 ft 432 kts
2026-04-25 10:41 27.20853 -96.70119 34820 ft 432 kts
2026-04-25 10:41 27.26717 -96.68657 34813 ft 432 kts
2026-04-25 10:42 27.32583 -96.67187 34820 ft 432 kts
2026-04-25 10:42 27.38447 -96.65714 34826 ft 432 kts
2026-04-25 10:43 27.44308 -96.64244 34823 ft 432 kts
2026-04-25 10:43 27.50133 -96.62785 34825 ft 432 kts
2026-04-25 10:44 27.55994 -96.61313 34828 ft 432 kts
2026-04-25 10:44 27.61857 -96.59826 34823 ft 432 kts
2026-04-25 10:45 27.67716 -96.58346 34828 ft 432 kts
2026-04-25 10:45 27.73578 -96.56870 34829 ft 432 kts
2026-04-25 10:46 27.78454 -96.55639 34830 ft 432 kts
2026-04-25 10:46 27.84314 -96.54151 34830 ft 432 kts
2026-04-25 10:47 27.90176 -96.52670 34827 ft 432 kts
2026-04-25 10:47 27.96038 -96.51182 34829 ft 432 kts
2026-04-25 10:48 28.01897 -96.49686 34829 ft 431 kts
2026-04-25 10:48 28.07753 -96.48197 34828 ft 431 kts
2026-04-25 10:49 28.13606 -96.46715 34832 ft 431 kts
2026-04-25 10:49 28.19463 -96.45225 34831 ft 431 kts
2026-04-25 10:50 28.25315 -96.43734 34831 ft 431 kts
2026-04-25 10:50 28.31131 -96.42246 34831 ft 431 kts
2026-04-25 10:51 28.36987 -96.40747 34833 ft 431 kts
2026-04-25 10:51 28.42845 -96.39253 34837 ft 431 kts
2026-04-25 10:52 28.48702 -96.37760 34831 ft 431 kts
2026-04-25 10:52 28.54559 -96.36258 34835 ft 432 kts
2026-04-25 10:53 28.60415 -96.34746 34836 ft 432 kts
2026-04-25 10:53 28.66275 -96.33239 34841 ft 432 kts
2026-04-25 10:54 28.72133 -96.31734 34840 ft 432 kts
2026-04-25 10:54 28.77861 -96.29393 34834 ft 456 kts 19°
2026-04-25 10:55 28.83179 -96.25261 34833 ft 464 kts 25°
2026-04-25 10:55 28.88474 -96.21038 34830 ft 464 kts 24°
2026-04-25 10:56 28.93780 -96.16819 34823 ft 465 kts 24°
2026-04-25 10:56 28.99083 -96.12593 34814 ft 465 kts 24°
2026-04-25 10:57 29.04385 -96.08359 34814 ft 465 kts 24°
2026-04-25 10:57 29.09687 -96.04129 34842 ft 465 kts 24°
2026-04-25 10:58 29.14990 -95.99892 34840 ft 465 kts 24°
2026-04-25 10:58 29.20286 -95.95646 34838 ft 465 kts 24°
2026-04-25 10:59 29.25576 -95.91396 34829 ft 465 kts 24°
2026-04-25 10:59 29.28236 -95.89257 34940 ft 467 kts 24°
2026-04-25 10:59 29.30900 -95.87115 35208 ft 467 kts 24°
2026-04-25 10:59 29.33562 -95.84971 35484 ft 468 kts 24°
2026-04-25 11:00 29.36183 -95.82856 35753 ft 467 kts 24°
2026-04-25 11:00 29.38843 -95.80710 36038 ft 467 kts 24°
2026-04-25 11:00 29.41500 -95.78567 36307 ft 467 kts 24°
2026-04-25 11:00 29.44153 -95.76429 36580 ft 466 kts 23°
2026-04-25 11:01 29.46808 -95.74290 36792 ft 467 kts 23°
2026-04-25 11:01 29.52120 -95.69999 36847 ft 467 kts 23°
2026-04-25 11:02 29.57430 -95.65699 36851 ft 467 kts 24°
2026-04-25 11:02 29.62729 -95.61406 36853 ft 467 kts 23°
2026-04-25 11:03 29.68037 -95.57107 36849 ft 466 kts 24°
2026-04-25 11:03 29.73339 -95.52797 36841 ft 467 kts 24°
2026-04-25 11:04 29.78639 -95.48481 36838 ft 467 kts 24°
2026-04-25 11:04 29.83942 -95.44160 36855 ft 467 kts 24°
2026-04-25 11:05 29.89213 -95.39867 36869 ft 467 kts 23°
2026-04-25 11:05 29.94513 -95.35538 36870 ft 467 kts 24°
2026-04-25 11:06 29.99847 -95.31296 36871 ft 464 kts 21°
2026-04-25 11:06 30.05251 -95.27260 36871 ft 462 kts 20°
2026-04-25 11:07 30.10663 -95.23253 36871 ft 463 kts 21°
2026-04-25 11:07 30.16061 -95.19181 36867 ft 463 kts 21°
2026-04-25 11:08 30.21440 -95.15076 36873 ft 463 kts 21°
2026-04-25 11:08 30.26821 -95.10974 36868 ft 463 kts 21°
2026-04-25 11:09 30.32206 -95.06871 36873 ft 463 kts 21°
2026-04-25 11:09 30.37577 -95.02770 36873 ft 463 kts 21°
2026-04-25 11:10 30.42948 -94.98662 36871 ft 463 kts 21°
2026-04-25 11:10 30.48324 -94.94557 36869 ft 462 kts 21°
2026-04-25 11:11 30.53659 -94.90476 36873 ft 462 kts 21°
2026-04-25 11:11 30.59020 -94.86359 36874 ft 462 kts 22°
2026-04-25 11:12 30.64377 -94.82243 36881 ft 462 kts 22°
2026-04-25 11:12 30.69727 -94.78126 36871 ft 461 kts 22°
2026-04-25 11:13 30.75079 -94.74005 36877 ft 461 kts 22°
2026-04-25 11:13 30.80420 -94.69885 36885 ft 461 kts 22°
2026-04-25 11:14 30.85762 -94.65762 36884 ft 461 kts 22°
2026-04-25 11:14 30.91103 -94.61639 36884 ft 460 kts 22°
2026-04-25 11:15 30.96440 -94.57508 36891 ft 461 kts 22°
2026-04-25 11:15 31.01773 -94.53360 36895 ft 461 kts 22°
2026-04-25 11:16 31.09771 -94.47154 36895 ft 461 kts 22°
2026-04-25 11:16 31.15109 -94.42999 36899 ft 461 kts 22°
2026-04-25 11:17 31.20404 -94.38873 36895 ft 461 kts 23°
2026-04-25 11:17 31.25736 -94.34711 36891 ft 461 kts 23°
2026-04-25 11:18 31.31066 -94.30544 36895 ft 461 kts 23°
2026-04-25 11:18 31.36397 -94.26380 36895 ft 461 kts 23°
2026-04-25 11:19 31.41731 -94.22203 36886 ft 461 kts 23°
2026-04-25 11:19 31.47058 -94.18021 36893 ft 461 kts 24°
2026-04-25 11:20 31.52379 -94.13838 36886 ft 461 kts 24°
2026-04-25 11:20 31.57702 -94.09656 36887 ft 461 kts 24°
2026-04-25 11:21 31.63030 -94.05466 36886 ft 461 kts 24°
2026-04-25 11:21 31.68347 -94.01268 36889 ft 461 kts 24°
2026-04-25 11:22 31.72764 -93.97777 36884 ft 460 kts 24°
2026-04-25 11:22 31.78966 -93.92871 36883 ft 460 kts 24°
2026-04-25 11:23 31.84288 -93.88662 36883 ft 460 kts 25°
2026-04-25 11:23 31.89556 -93.84480 36885 ft 460 kts 25°
2026-04-25 11:24 31.94855 -93.80269 36878 ft 459 kts 25°
2026-04-25 11:24 32.00149 -93.76057 36874 ft 459 kts 25°
2026-04-25 11:25 32.05445 -93.71833 36874 ft 459 kts 25°
2026-04-25 11:25 32.10730 -93.67614 36878 ft 459 kts 26°
2026-04-25 11:26 32.16013 -93.63399 36876 ft 459 kts 26°
2026-04-25 11:26 32.21290 -93.59178 36884 ft 458 kts 26°
2026-04-25 11:27 32.26568 -93.54946 36882 ft 458 kts 26°
2026-04-25 11:27 32.30946 -93.51427 36883 ft 458 kts 26°
2026-04-25 11:28 32.37104 -93.46474 36880 ft 458 kts 26°
2026-04-25 11:28 32.42371 -93.42244 36882 ft 458 kts 26°
2026-04-25 11:29 32.47635 -93.38003 36901 ft 458 kts 27°
2026-04-25 11:29 32.52893 -93.33744 36912 ft 457 kts 27°
2026-04-25 11:30 32.58147 -93.29497 36915 ft 457 kts 27°
2026-04-25 11:30 32.63397 -93.25256 36919 ft 457 kts 27°
2026-04-25 11:31 32.68652 -93.20999 36912 ft 457 kts 27°
2026-04-25 11:31 32.73898 -93.16732 36912 ft 457 kts 27°
2026-04-25 11:32 32.79136 -93.12471 36899 ft 457 kts 27°
2026-04-25 11:32 32.84379 -93.08196 36886 ft 457 kts 27°
2026-04-25 11:33 32.89622 -93.03928 36875 ft 457 kts 27°
2026-04-25 11:33 32.94828 -92.99678 36887 ft 457 kts 28°
2026-04-25 11:34 33.00094 -92.95367 36892 ft 457 kts 28°
2026-04-25 11:34 33.05294 -92.91105 36900 ft 456 kts 28°
2026-04-25 11:35 33.10527 -92.86813 36905 ft 456 kts 28°
2026-04-25 11:35 33.15757 -92.82523 36912 ft 456 kts 28°
2026-04-25 11:36 33.20984 -92.78222 36909 ft 457 kts 29°
2026-04-25 11:36 33.25617 -92.72916 36907 ft 470 kts 49°
2026-04-25 11:37 33.28727 -92.65970 36898 ft 478 kts 63°
2026-04-25 11:37 33.31400 -92.58695 36892 ft 478 kts 62°
2026-04-25 11:38 33.34090 -92.51413 36885 ft 478 kts 62°
2026-04-25 11:38 33.36771 -92.44134 36885 ft 479 kts 63°
2026-04-25 11:39 33.38995 -92.38071 36884 ft 479 kts 63°
2026-04-25 11:39 33.41663 -92.30769 36891 ft 479 kts 63°
2026-04-25 11:40 33.44328 -92.23467 36886 ft 479 kts 63°
2026-04-25 11:40 33.46987 -92.16166 36892 ft 479 kts 63°
2026-04-25 11:41 33.49648 -92.08855 36895 ft 479 kts 63°
2026-04-25 11:41 33.52292 -92.01535 36903 ft 479 kts 64°
2026-04-25 11:42 33.54938 -91.94209 36905 ft 479 kts 64°
2026-04-25 11:42 33.57584 -91.86892 36912 ft 479 kts 64°
2026-04-25 11:43 33.60214 -91.79602 36910 ft 479 kts 64°
2026-04-25 11:43 33.62864 -91.72206 36912 ft 479 kts 64°
2026-04-25 11:44 33.65478 -91.64905 36913 ft 480 kts 64°